FIN8ZR EPWA-EFHK

Flight info

Callsign FIN8ZR
Flight time N/A
Altitude 37000
Route BAMSO Z182 ASLUX DCT BULEP M857 UNPEG DCT BOKSU DCT GUNTA M857 SOKVA DCT ANAMA DCT KEMET DCT KEXLE DCT BEKNA DCT INTOR
Aircraft A320/M-SDE1E2E3FGIJ1M1RWXYZ/LB1

Departure

Time 2026-05-03 20:27
Airport Warsaw Chopin Airport (EPWA)

Arrival

Time N/A
Airport Helsinki Vantaa Airport (EFHK)
Time Latitude Longitude Altitude Speed Heading
2026-05-03 20:15 52.16850 20.97286 339 ft 0 kts 76°
2026-05-03 20:18 52.16845 20.97253 334 ft 4 kts 76°
2026-05-03 20:18 52.16838 20.97210 333 ft 4 kts 76°
2026-05-03 20:18 52.16833 20.97176 334 ft 4 kts 64°
2026-05-03 20:18 52.16818 20.97148 334 ft 4 kts
2026-05-03 20:19 52.16803 20.97150 336 ft 0 kts 332°
2026-05-03 20:21 52.16813 20.97141 335 ft 4 kts 332°
2026-05-03 20:21 52.16852 20.97107 335 ft 8 kts 332°
2026-05-03 20:22 52.16918 20.97049 337 ft 13 kts 332°
2026-05-03 20:22 52.17015 20.96964 337 ft 18 kts 332°
2026-05-03 20:22 52.17126 20.96867 337 ft 18 kts 332°
2026-05-03 20:22 52.17234 20.96773 339 ft 17 kts 332°
2026-05-03 20:23 52.17332 20.96686 338 ft 15 kts 332°
2026-05-03 20:23 52.17419 20.96610 337 ft 13 kts 332°
2026-05-03 20:23 52.17464 20.96542 339 ft 8 kts 288°
2026-05-03 20:23 52.17456 20.96467 335 ft 6 kts 244°
2026-05-03 20:24 52.17441 20.96396 339 ft 8 kts 268°
2026-05-03 20:24 52.17472 20.96326 339 ft 7 kts 326°
2026-05-03 20:24 52.17512 20.96291 334 ft 6 kts 332°
2026-05-03 20:24 52.17546 20.96262 338 ft 6 kts 332°
2026-05-03 20:25 52.17579 20.96206 337 ft 7 kts 295°
2026-05-03 20:25 52.17581 20.96136 335 ft 6 kts 259°
2026-05-03 20:25 52.17558 20.96077 336 ft 8 kts 221°
2026-05-03 20:25 52.17500 20.96027 339 ft 10 kts 206°
2026-05-03 20:26 52.17427 20.95985 338 ft 12 kts 180°
2026-05-03 20:26 52.17344 20.96038 336 ft 14 kts 152°
2026-05-03 20:26 52.17229 20.96139 335 ft 35 kts 151°
2026-05-03 20:26 52.16785 20.96526 336 ft 104 kts 152°
2026-05-03 20:27 52.15976 20.97234 345 ft 157 kts 152°
2026-05-03 20:27 52.14950 20.98130 797 ft 167 kts 153°
2026-05-03 20:27 52.13931 20.99020 1494 ft 166 kts 158°
2026-05-03 20:27 52.12912 20.99906 2167 ft 166 kts 159°
2026-05-03 20:28 52.11952 21.00985 2755 ft 175 kts 131°
2026-05-03 20:28 52.11515 21.02881 3313 ft 184 kts 106°
2026-05-03 20:28 52.11241 21.04952 3767 ft 195 kts 107°
2026-05-03 20:28 52.10925 21.07196 4018 ft 217 kts 107°
2026-05-03 20:29 52.10563 21.09724 4253 ft 242 kts 106°
2026-05-03 20:29 52.10233 21.12486 4839 ft 254 kts 93°
2026-05-03 20:29 52.10604 21.15302 5587 ft 260 kts 60°
2026-05-03 20:29 52.11816 21.17513 6132 ft 272 kts 28°
2026-05-03 20:30 52.13631 21.18552 6668 ft 282 kts 11°
2026-05-03 20:30 52.15472 21.19775 7410 ft 293 kts 32°
2026-05-03 20:30 52.16968 21.22063 8203 ft 300 kts 52°
2026-05-03 20:30 52.17989 21.25038 9007 ft 304 kts 69°
2026-05-03 20:31 52.18736 21.28281 9851 ft 307 kts 70°
2026-05-03 20:31 52.19508 21.31552 10584 ft 312 kts 69°
2026-05-03 20:31 52.20327 21.34972 10855 ft 336 kts 69°
2026-05-03 20:31 52.21204 21.38615 11228 ft 352 kts 69°
2026-05-03 20:32 52.22106 21.42366 11904 ft 358 kts 69°
2026-05-03 20:32 52.23018 21.46161 12645 ft 361 kts 69°
2026-05-03 20:32 52.23935 21.49996 13380 ft 365 kts 68°
2026-05-03 20:32 52.24856 21.53869 14089 ft 368 kts 68°
2026-05-03 20:33 52.25783 21.57785 14722 ft 372 kts 68°
2026-05-03 20:33 52.26719 21.61750 15320 ft 377 kts 68°
2026-05-03 20:33 52.27667 21.65762 15955 ft 380 kts 68°
2026-05-03 20:33 52.28621 21.69810 16573 ft 384 kts 68°
2026-05-03 20:34 52.29585 21.73894 17192 ft 387 kts 68°
2026-05-03 20:34 52.30555 21.78019 17802 ft 391 kts 68°
2026-05-03 20:34 52.31530 21.82178 18457 ft 393 kts 68°
2026-05-03 20:34 52.32499 21.86363 19004 ft 395 kts 70°
2026-05-03 20:35 52.33154 21.90736 19580 ft 399 kts 81°
2026-05-03 20:35 52.33314 21.95277 20147 ft 402 kts 92°
2026-05-03 20:35 52.33061 21.99842 20712 ft 405 kts 95°
2026-05-03 20:35 52.32873 22.04437 21262 ft 406 kts 86°
2026-05-03 20:36 52.33329 22.08990 21802 ft 407 kts 71°
2026-05-03 20:36 52.34485 22.13190 22351 ft 406 kts 56°
2026-05-03 20:36 52.36257 22.16756 22883 ft 404 kts 40°
2026-05-03 20:36 52.38517 22.19460 23409 ft 403 kts 26°
2026-05-03 20:37 52.41097 22.21214 23861 ft 402 kts 17°
2026-05-03 20:37 52.43714 22.22696 24283 ft 404 kts 17°
2026-05-03 20:37 52.46380 22.24205 24704 ft 406 kts 17°
2026-05-03 20:37 52.49095 22.25748 25120 ft 408 kts 17°
2026-05-03 20:38 52.51751 22.27260 25510 ft 410 kts 17°
2026-05-03 20:38 52.54453 22.28803 25896 ft 412 kts 17°
2026-05-03 20:38 52.57168 22.30359 26280 ft 414 kts 18°
2026-05-03 20:38 52.59896 22.31930 26658 ft 416 kts 18°
2026-05-03 20:39 52.62636 22.33513 27040 ft 418 kts 18°
2026-05-03 20:39 52.65391 22.35105 27403 ft 420 kts 18°
2026-05-03 20:39 52.68153 22.36700 27764 ft 422 kts 18°
2026-05-03 20:39 52.70933 22.38305 28124 ft 424 kts 18°
2026-05-03 20:40 52.73725 22.39920 28473 ft 426 kts 18°
2026-05-03 20:40 52.76532 22.41531 28806 ft 428 kts 16°
2026-05-03 20:40 52.79425 22.42724 29135 ft 429 kts 11°
2026-05-03 20:40 52.82353 22.43773 29446 ft 431 kts 11°
2026-05-03 20:41 52.85289 22.44826 29755 ft 433 kts 11°
2026-05-03 20:41 52.88240 22.45889 30043 ft 435 kts 11°
2026-05-03 20:41 52.91205 22.46958 30288 ft 437 kts 11°
2026-05-03 20:41 52.94181 22.48034 30536 ft 439 kts 12°
2026-05-03 20:42 52.97170 22.49118 30775 ft 440 kts 12°
2026-05-03 20:42 53.00167 22.50208 31009 ft 441 kts 12°
2026-05-03 20:42 53.03172 22.51300 31236 ft 443 kts 12°
2026-05-03 20:42 53.06175 22.52394 31547 ft 442 kts 12°
2026-05-03 20:43 53.09172 22.53488 31872 ft 441 kts 12°
2026-05-03 20:43 53.12164 22.54583 32177 ft 440 kts 12°
2026-05-03 20:43 53.15154 22.55681 32477 ft 439 kts 12°
2026-05-03 20:43 53.18135 22.56776 32800 ft 439 kts 12°
2026-05-03 20:44 53.21111 22.57868 33119 ft 438 kts 12°
2026-05-03 20:44 53.24086 22.58960 33433 ft 437 kts 12°
2026-05-03 20:44 53.27010 22.60051 33744 ft 436 kts 13°
2026-05-03 20:44 53.29994 22.61262 34049 ft 435 kts 13°
2026-05-03 20:45 53.32887 22.62512 34297 ft 435 kts 14°
2026-05-03 20:45 53.35810 22.63816 34557 ft 435 kts 14°
2026-05-03 20:45 53.38733 22.65131 34792 ft 435 kts 14°
2026-05-03 20:45 53.41657 22.66436 35023 ft 435 kts 14°
2026-05-03 20:46 53.44584 22.67727 35252 ft 435 kts 13°
2026-05-03 20:46 53.47509 22.69006 35479 ft 434 kts 13°
2026-05-03 20:46 53.50431 22.70278 35690 ft 434 kts 13°
2026-05-03 20:46 53.53355 22.71547 35904 ft 434 kts 13°
2026-05-03 20:47 53.56276 22.72813 36114 ft 433 kts 13°
2026-05-03 20:47 53.59197 22.74077 36318 ft 433 kts 13°
2026-05-03 20:47 53.62116 22.75345 36521 ft 433 kts 13°
2026-05-03 20:47 53.65031 22.76620 36714 ft 433 kts 13°
2026-05-03 20:48 53.67941 22.77900 36909 ft 432 kts 13°
2026-05-03 20:48 53.73753 22.80461 36988 ft 430 kts 13°
2026-05-03 20:49 53.79544 22.83015 36984 ft 430 kts 13°
2026-05-03 20:49 53.85333 22.85574 36979 ft 430 kts 13°
2026-05-03 20:50 53.91120 22.88148 36982 ft 430 kts 13°
2026-05-03 20:50 53.96910 22.90717 36978 ft 430 kts 13°
2026-05-03 20:51 54.02700 22.93293 36982 ft 430 kts 13°
2026-05-03 20:51 54.08492 22.95891 36987 ft 430 kts 13°
2026-05-03 20:52 54.14244 22.98476 36987 ft 431 kts 13°
2026-05-03 20:52 54.20041 23.01075 36985 ft 431 kts 13°
2026-05-03 20:53 54.25838 23.03686 36989 ft 431 kts 13°
2026-05-03 20:53 54.31637 23.06282 36986 ft 431 kts 11°
2026-05-03 20:54 54.37505 23.08341 36997 ft 430 kts
2026-05-03 20:54 54.46349 23.10933 36980 ft 430 kts
2026-05-03 20:55 54.52239 23.12783 36973 ft 430 kts
2026-05-03 20:55 54.58127 23.14709 36965 ft 431 kts
2026-05-03 20:56 54.64029 23.16648 36964 ft 432 kts
2026-05-03 20:56 54.69935 23.18586 36955 ft 432 kts
2026-05-03 20:57 54.75851 23.20519 36954 ft 433 kts
2026-05-03 20:57 54.80771 23.22121 36954 ft 433 kts
2026-05-03 20:58 54.86684 23.24063 36968 ft 433 kts
2026-05-03 20:58 54.92610 23.26019 36957 ft 433 kts
2026-05-03 20:59 54.98538 23.27978 36947 ft 433 kts
2026-05-03 20:59 55.04462 23.29948 36943 ft 433 kts
2026-05-03 21:00 55.09389 23.31585 36940 ft 434 kts
2026-05-03 21:00 55.16323 23.33893 36951 ft 434 kts
2026-05-03 21:01 55.22262 23.35872 36947 ft 435 kts